Home   Weather   Bremen   Past weeks

Flag for Germany Past Weather in Bremen, Bremen, Germany — Yesterday and Last 2 Weeks

Now
45 °F

Scattered clouds.


Feels Like: 39 °F
Forecast: 31 / 49 °F
Wind: 10 mph from Northwest

Location: Bremen Airport

Current Time: Apr 25, 2017 at 2:47:24 pm

Latest Report: Apr 25, 2017 at 2:20 pm


Visibility: N/A

Pressure: 29.71 "Hg

Humidity: 71%

Dew Point: 36 °F

Location of BremenLocation

Past Weather in Bremen — Graph

°F

Bremen Temperature Yesterday

Maximum temperature yesterday: 55 °F (at 1:50 pm)
Minimum temperature yesterday: 32 °F (at 1:50 am)
Average temperature yesterday: 44 °F

High & Low Weather Summary for the Past Weeks

 TemperatureHumidityPressure
High57 °F (Apr 21, 11:50 am)100% (Apr 14, 5:20 am)30.63 "Hg (Apr 14, 5:20 am)
Low27 °F (Apr 20, 6:20 am)35% (Apr 20, 5:50 pm)29.59 "Hg (Apr 25, 5:20 am)
Average44 °F74%30.11 "Hg
* Reported Apr 10 1:20 pm — Apr 25 1:20 pm, Bremen, Weather by CustomWeather, © 2017

Note: Actual official high and low records may vary slightly from our data, if they occured in-between our weather recording intervals... More about our weather records

Advertising

Bremen Weather History for the Previous 24 Hours

Scroll right to see more
 ConditionsComfort  
Time TempWeatherWind HumidityBarometerVisibility
1:20 pm
Tue, Apr 25
41 °FScattered clouds.9 mph81%29.68 "HgN/A
12:50 pm39 °FThundershowers. Partly sunny.23 mph87%29.68 "HgN/A
12:20 pm39 °FPartly sunny.18 mph81%29.65 "HgN/A
11:50 am46 °FPartly sunny.21 mph62%29.62 "HgN/A
11:20 am45 °FPartly sunny.16 mph71%29.62 "HgN/A
10:50 am43 °FPartly sunny.18 mph71%29.62 "HgN/A
10:20 am43 °FSprinkles. Partly sunny.20 mph71%29.62 "HgN/A
9:50 am43 °FPartly sunny.21 mph71%29.62 "HgN/A
9:20 am43 °FScattered clouds.18 mph76%29.62 "HgN/A
8:50 am43 °FScattered clouds.16 mph76%29.62 "HgN/A
8:20 am41 °FScattered clouds.17 mph81%29.62 "HgN/A
7:50 am41 °FLight rain. Scattered clouds.14 mph87%29.59 "HgN/A
7:20 am41 °FDrizzle. Partly sunny.14 mph93%29.59 "HgN/A
6:50 am41 °FDrizzle. Partly sunny.10 mph93%29.59 "Hg6 mi
6:20 am41 °FPartly sunny.7 mph93%29.59 "Hg5 mi
5:50 am41 °FPartly cloudy.5 mph93%29.59 "Hg5 mi
5:20 am41 °FPartly cloudy.2 mph93%29.59 "HgN/A
4:50 am41 °FPassing clouds.1 mph93%29.62 "HgN/A
4:20 am39 °FLight rain. Passing clouds.No wind100%29.62 "HgN/A
3:50 am39 °FPassing clouds.2 mph93%29.62 "HgN/A
3:20 am39 °FLight rain. Passing clouds.1 mph93%29.65 "HgN/A
2:50 am39 °FLight rain. Partly cloudy.5 mph93%29.65 "HgN/A
2:20 am39 °FLight rain. Partly cloudy.1 mph100%29.65 "HgN/A
1:50 am39 °FLight rain. Partly cloudy.2 mph93%29.68 "HgN/A
1:20 am41 °FLight rain. Passing clouds.6 mph87%29.68 "HgN/A
12:50 am41 °FLight rain. Passing clouds.7 mph93%29.68 "HgN/A
12:20 am41 °FLight rain. Passing clouds.7 mph93%29.71 "HgN/A
11:50 pm
Mon, Apr 24
41 °FLight rain. Partly cloudy.9 mph93%29.71 "HgN/A
11:20 pm43 °FLight rain. Partly cloudy.9 mph87%29.71 "HgN/A
10:50 pm43 °FLight rain. Partly cloudy.5 mph93%29.71 "Hg5 mi
9:50 pm45 °FLight rain. Passing clouds.3 mph87%29.74 "HgN/A
9:20 pm45 °FLight rain. Partly cloudy.3 mph93%29.74 "HgN/A
8:50 pm45 °FPartly cloudy.5 mph87%29.77 "HgN/A
8:20 pm46 °FLight rain. Broken clouds.6 mph93%29.77 "HgN/A
7:50 pm46 °FLight rain. Partly sunny.7 mph93%29.77 "HgN/A
7:20 pm46 °FLight rain. Partly sunny.10 mph93%29.77 "HgN/A
6:50 pm46 °FLight rain. Partly sunny.20 mph87%29.80 "Hg4 mi
6:20 pm50 °FPartly sunny.12 mph82%29.77 "HgN/A
5:50 pm48 °FBroken clouds.14 mph87%29.80 "HgN/A
5:20 pm52 °FBroken clouds.13 mph77%29.80 "HgN/A
4:50 pm52 °FPartly sunny.12 mph77%29.80 "HgN/A
4:20 pm50 °FPartly sunny.22 mph82%29.80 "HgN/A
3:50 pm52 °FDrizzle. Partly sunny.17 mph72%29.80 "HgN/A
3:20 pm54 °FPartly sunny.18 mph67%29.83 "HgN/A
2:50 pm54 °FPartly sunny.18 mph63%29.83 "HgN/A
2:20 pm52 °FBroken clouds.20 mph62%29.83 "HgN/A
Weather by CustomWeather, © 2017

See weather overviewHow to use our weather pages